Skip to main content Skip to accessibility
This website is not compatible with your web browser. You should install a newer browser. If you live in Jersey and need help upgrading call the States of Jersey web team on 440099.
Homegov.je

Information and public services for the Island of Jersey

L'înformâtion et les sèrvices publyis pouor I'Île dé Jèrri

  • Choose the service you want to log in to:

  • gov.je

    Update your notification preferences

  • one.gov.je

    Access government services

  • CAESAR

    Clear goods through customs or claim relief

  • Talentlink

    View or update your States of Jersey job application

CI Airfield TAFs

JERSEY - EGJJ

EGJJ 251658Z 2518/2603 25013KT 9999 FEW017 PROB30 TEMPO 2518/2603 8000 SHRA BKN015TCU=

GUERNSEY - EGJB

EGJB 251658Z 2518/2603 25014KT 9999 FEW014 PROB40 TEMPO 2518/2603 26016G26KT 7000 SHRA BKN014TCU=

ALDERNEY - EGJA

EGJA 251744Z 2517/2600 CNL=

​Apologies to the disruption to normal service. Commercial Aviation Services are available from the Jersey Met Forecaster 01534 448765.

Back to top
rating button